GW3221 Weather Reports


time (UTC)temp
C
wind
direction
speed
KPH
gust
KPH
rain 1hr
cm
rain 24hr
cm
rain mn
cm
humidity
%
barometer
mb
20260510201540 22 324 1.6 4.8 0.00 0.13 0.00 58 1013.5
20260510200037 22 260 0.0 6.4 0.00 0.13 0.00 57 1013.5
20260510194537 23 301 1.6 8.0 0.00 0.13 0.00 59 1013.6
20260510193036 23 20 3.2 6.4 0.00 0.13 0.00 56 1013.6
20260510191543 24 346 1.6 9.7 0.00 0.13 0.00 58 1013.6
20260510190043 23 309 3.2 8.0 0.00 0.13 0.00 56 1013.7
20260510184542 23 304 1.6 9.7 0.00 0.18 0.00 58 1013.9
20260510183041 23 281 1.6 9.7 0.00 0.18 0.00 59 1013.8
20260510181601 24 335 1.6 6.4 0.00 0.18 0.00 59 1013.9
20260510180046 23 323 3.2 11.3 0.00 0.18 0.00 57 1013.8
20260510174552 23 285 1.6 8.0 0.00 0.18 0.00 59 1013.8
20260510173037 23 298 1.6 9.7 0.00 0.18 0.00 59 1013.9
20260510171536 25 291 3.2 8.0 0.00 0.18 0.00 58 1013.8
20260510170036 24 326 1.6 9.7 0.00 0.18 0.00 59 1013.7
20260510164542 23 350 1.6 8.0 0.00 0.18 0.00 61 1013.7
20260510163038 23 262 1.6 6.4 0.00 0.18 0.00 58 1013.8
20260510161538 22 316 1.6 6.4 0.00 0.18 0.00 64 1013.7
20260510160041 22 17 3.2 9.7 0.00 0.18 0.00 65 1013.7
20260510154536 22 195 0.0 4.8 0.00 0.18 0.00 69 1013.7
20260510153035 22 135 1.6 8.0 0.00 0.18 0.00 72 1013.9
20260510151544 21 191 0.0 4.8 0.00 0.18 0.00 75 1013.8
20260510150038 20 0 0.0 4.8 0.00 0.18 0.00 75 1014.1
20260510144538 19 269 1.6 3.2 0.00 0.18 0.00 76 1014.0
20260510143037 18 162 1.6 6.4 0.00 0.18 0.00 75 1013.9
20260510141538 17 212 1.6 6.4 0.00 0.18 0.00 71 1014.0
20260510140040 17 231 0.0 1.6 0.00 0.18 0.00 52 1014.0
20260510134542 16 203 0.0 3.2 0.00 0.18 0.00 38 1013.9
20260510133038 15 161 1.6 3.2 0.00 0.18 0.00 4 1014.1
20260510131538 13 280 0.0 1.6 0.00 0.18 0.00 5 1014.0
20260510130037 12 0 0.0 1.6 0.00 0.18 0.00 7 1014.2
20260510124538 12 135 0.0 1.6 0.00 0.18 0.00 9 1014.0
20260510123040 11 139 0.0 3.2 0.00 0.18 0.00 10 1013.9
20260510121538 11 143 0.0 1.6 0.00 0.18 0.00 10 1013.6
20260510120039 11 143 0.0 1.6 0.00 0.18 0.00 11 1013.4
20260510114540 11 23 0.0 3.2 0.00 0.18 0.00 12 1013.3
20260510113044 11 316 0.0 1.6 0.00 0.18 0.00 13 1013.2
20260510111539 11 316 0.0 1.6 0.00 0.18 0.00 13 1013.1
20260510110037 10 0 0.0 4.8 0.00 0.18 0.00 14 1013.0
20260510104539 10 56 0.0 3.2 0.00 0.18 0.00 15 1013.0
20260510103043 10 15 0.0 1.6 0.00 0.18 0.00 15 1012.6
20260510101537 10 0 0.0 3.2 0.00 0.18 0.00 15 1012.5
20260510100052 10 98 0.0 1.6 0.00 0.18 0.00 16 1012.5
20260510094538 10 0 0.0 3.2 0.00 0.18 0.00 16 1012.5
20260510093045 10 0 0.0 3.2 0.00 0.18 0.00 16 1012.2
20260510091544 10 31 0.0 1.6 0.00 0.18 0.00 17 1012.3
20260510090045 10 0 0.0 4.8 0.00 0.18 0.00 17 1012.7
20260510084539 10 33 0.0 4.8 0.00 0.18 0.00 17 1012.5
20260510083045 10 342 1.6 3.2 0.00 0.18 0.00 18 1012.5
20260510081539 10 344 1.6 4.8 0.00 0.18 0.00 19 1012.5
20260510080039 10 0 0.0 1.6 0.00 0.18 0.00 19 1011.7
20260510074535 10 51 1.6 3.2 0.00 0.18 0.00 19 1011.8
20260510073039 10 0 0.0 1.6 0.00 0.18 0.00 19 1011.7
20260510071548 10 0 0.0 1.6 0.00 0.18 0.00 19 1011.7
20260510070039 10 0 0.0 3.2 0.00 0.18 0.00 20 1011.8
20260510064538 10 51 1.6 6.4 0.00 0.18 0.00 20 1011.6
20260510063039 10 0 0.0 1.6 0.00 0.18 0.00 21 1011.2
20260510061548 10 0 0.0 1.6 0.00 0.18 0.00 21 1011.3
20260510060041 10 114 0.0 1.6 0.00 0.18 0.00 21 1011.4
20260510054542 10 0 0.0 1.6 0.00 0.18 0.00 22 1011.6
20260510053037 10 0 0.0 1.6 0.00 0.18 0.00 22 1011.6
20260510051537 10 0 0.0 1.6 0.00 0.18 0.00 22 1011.6
20260510050038 10 0 0.0 1.6 0.00 0.18 0.00 22 1011.7
20260510044537 10 0 0.0 0.0 0.00 0.18 0.00 23 1011.8
20260510043040 10 0 0.0 0.0 0.00 0.18 0.00 24 1011.9
20260510041537 10 0 0.0 0.0 0.00 0.18 0.00 25 1011.9
20260510040040 10 0 0.0 0.0 0.00 0.18 0.00 26 1011.9
20260510034540 10 0 0.0 0.0 0.00 0.18 0.18 27 1011.8
20260510033046 10 0 0.0 0.0 0.00 0.18 0.18 28 1011.8
20260510031545 10 0 0.0 1.6 0.00 0.18 0.18 28 1011.5
20260510030037 10 0 0.0 0.0 0.00 0.18 0.18 28 1011.6
20260510024544 10 0 0.0 0.0 0.00 0.18 0.18 30 1011.6
20260510023037 10 0 0.0 0.0 0.00 0.18 0.18 30 1011.4
20260510021536 10 0 0.0 0.0 0.00 0.18 0.18 31 1011.4
20260510020039 10 0 0.0 1.6 0.00 0.18 0.18 33 1011.3
20260510014537 10 0 0.0 0.0 0.00 0.18 0.18 38 1011.3
20260510013038 10 0 0.0 0.0 0.00 0.18 0.18 39 1011.3
20260510011547 10 0 0.0 0.0 0.00 0.18 0.18 39 1011.1
20260510010037 10 0 0.0 0.0 0.00 0.18 0.18 42 1011.0
20260510004545 11 0 0.0 0.0 0.00 0.18 0.18 45 1010.9
20260510003100 11 0 0.0 0.0 0.00 0.18 0.18 48 1010.8
20260510001540 11 0 0.0 0.0 0.00 0.18 0.18 57 1010.8
20260510000040 12 0 0.0 0.0 0.00 0.18 0.18 59 1010.8
20260509234552 12 0 0.0 0.0 0.00 0.18 0.18 64 1010.9
20260509233041 12 0 0.0 1.6 0.00 0.18 0.18 67 1010.8
20260509231550 13 0 0.0 1.6 0.00 0.18 0.18 68 1010.8
20260509230037 13 0 0.0 3.2 0.00 0.18 0.18 69 1010.9
20260509224539 13 105 0.0 3.2 0.00 0.18 0.18 70 1010.8
20260509223036 13 115 0.0 6.4 0.00 0.18 0.18 66 1010.9
20260509221541 13 0 0.0 6.4 0.00 0.18 0.18 65 1010.6
20260509220041 13 165 1.6 6.4 0.00 0.18 0.18 67 1010.9
20260509214538 13 222 1.6 4.8 0.03 0.18 0.18 68 1010.9
20260509213041 13 122 0.0 3.2 0.08 0.18 0.18 70 1010.9
20260509211539 13 131 0.0 1.6 0.08 0.18 0.18 62 1011.0
20260509210036 12 0 0.0 1.6 0.13 0.18 0.18 61 1011.3
20260509204540 12 0 0.0 3.2 0.10 0.15 0.15 64 1010.8
20260509203039 12 0 0.0 6.4 0.05 0.10 0.10 64 1011.0